This demonstration page uses our WeatherBlox Daily Observations layout. Learn more.

Left ArrowRight Arrow

39.08367, -84.50855

Hourly Observations for December 4, 2017

Temp ( °F °C ) Dew Point ( °F °C ) Humidity (%) Winds ( mph kmh ) Pressure ( in mb ) Visibility ( mi km ) Precip ( " mm )
12:53 am 00:53 Clear with Mist and Fog 30 -1.1 30 -1.1 100 100 N N/A 30.21 1023 2 3 N/A
1:03 am 01:03 Clear with Mist and Fog 31 -0.6 31 -0.6 100 100 N N/A 30.24 1024 3 5 N/A
1:53 am 01:53 Clear with Mist and Fog 29 -1.7 29 -1.7 100 100 N N/A 30.20 1023 2 3 N/A
2:02 am 02:02 Clear with Mist and Fog 30 -1.1 30 -1.1 100 100 N N/A 30.24 1024 3 5 N/A
2:25 am 02:25 Clear with Mist and Fog 31 -0.6 30 -1.1 96 96 N N/A 30.24 1024 3 4 N/A
2:49 am 02:49 Clear with Mist and Fog 30 -1 30 -1 100 100 N N/A 30.24 1024 2 2 N/A
2:53 am 02:53 Clear with Mist and Fog 29 -1.7 29 -1.7 100 100 N N/A 30.20 1023 2 3 N/A
3:01 am 03:01 Clear with Mist and Fog 29 -1.7 29 -1.7 100 100 N N/A 30.24 1024 3 5 N/A
3:32 am 03:32 Clear with Mist and Fog 30 -1.1 30 -1.1 100 100 N N/A 30.21 1023 3 4 N/A
3:49 am 03:49 Clear with Mist and Fog 30 -1 28 -2 93 93 N N/A 30.21 1023 2 2 N/A
3:53 am 03:53 Clear with Mist and Fog 30 -1.1 29 -1.7 96 96 N N/A 30.19 1023 1 2 N/A
4:13 am 04:13 Clear with Mist and Fog 30 -1.1 29 -1.7 96 96 N N/A 30.21 1023 3 5 N/A
4:26 am 04:26 Clear with Mist and Fog 30 -1.1 29 -1.7 96 96 N N/A 30.21 1023 3 4 N/A
4:42 am 04:42 Clear with Mist and Fog 29 -1.7 29 -1.7 100 100 N N/A 30.21 1023 1 1 N/A
4:51 am 04:51 Clear with Mist and Fog 28 -2 28 -2 100 100 N N/A 30.21 1023 1 2 N/A
4:53 am 04:53 Clear with Mist and Fog 29 -1.7 29 -1.7 100 100 N N/A 30.19 1023 1 1 N/A
5:09 am 05:09 Clear with Mist and Fog 29 -1.7 28 -2.2 96 96 N N/A 30.21 1023 2 3 N/A
5:17 am 05:17 Clear with Mist and Fog 30 -1.1 28 -2.2 92 92 N N/A 30.21 1023 5 8 N/A
5:28 am 05:28 Clear with Mist and Fog 29 -1.7 28 -2.2 96 96 N N/A 30.21 1023 2 3 N/A
5:45 am 05:45 Mostly Cloudy with Mist and Fog 29 -1.7 29 -1.7 100 100 N N/A 30.21 1023 2 3 N/A
5:53 am 05:53 Mostly Cloudy with Mist and Fog 30 -1.1 30 -1.1 100 100 N N/A 30.19 1022 3 5 N/A
6:53 am 06:53 Clear with Mist and Fog 30 -1.1 30 -1.1 100 100 N N/A 30.20 1023 5 8 N/A
7:53 am 07:53 Sunny 31 -0.6 31 -0.6 100 100 N N/A 30.20 1023 7 11 N/A
8:53 am 08:53 Sunny 35 1.7 34 1.1 96 96 N N/A 30.19 1022 10 16 N/A
9:53 am 09:53 Sunny 41 5 37 2.8 86 86 W 3 6 30.17 1022 10 16 N/A
10:53 am 10:53 Mostly Sunny 49 9.4 38 3.3 66 66 S 8 13 30.16 1021 10 16 N/A
11:53 am 11:53 Sunny 53 11.7 40 4.4 61 61 S 8 13 30.11 1020 10 16 N/A
12:53 pm 12:53 Sunny 58 14.4 42 5.6 56 56 S 9 15 30.06 1018 10 16 N/A
1:53 pm 13:53 Sunny 63 17.2 43 6.1 48 48 S 12 19 30.01 1016 10 16 N/A
2:53 pm 14:53 Sunny 65 18.3 42 5.6 43 43 S 13 20 29.99 1016 10 16 N/A
3:53 pm 15:53 Sunny 64 17.8 42 5.6 45 45 S 10 17 29.99 1016 10 16 N/A
4:53 pm 16:53 Sunny 61 16.1 42 5.6 50 50 SSE 6 9 29.98 1015 10 16 N/A
5:53 pm 17:53 Clear 59 15 42 5.6 54 54 S 7 11 29.99 1016 10 16 N/A
6:53 pm 18:53 Partly Cloudy 59 15 41 5 51 51 S 7 11 29.96 1015 10 16 N/A
7:53 pm 19:53 Clear 60 15.6 41 5 50 50 S 12 19 29.95 1014 10 16 N/A
8:53 pm 20:53 Mostly Cloudy 61 16.1 40 4.4 46 46 S 14 22 29.94 1014 10 16 N/A
9:53 pm 21:53 Cloudy 62 16.7 43 6.1 50 50 S 16 26 29.93 1014 10 16 N/A
10:53 pm 22:53 Cloudy with Light Rain 57 13.9 49 9.4 74 74 S 14 22 29.93 1014 8 13 0.03 0.76
11:53 pm 23:53 Cloudy with Light Rain 56 13.3 49 9.4 77 77 S 7 11 29.92 1013 10 16 0.03 0.76

Powered by AerisWeather